| time (UTC) | temp F | wind direction | speed MPH | gust MPH | rain 1hr in | rain 24hr in | rain mn in | humidity % | barometer mb |
| 20260904173003 | 88 | 290 | 2.0 | 8.0 | 0.00 | 0.00 | 0.00 | 69 | 1018.1 |
| 20260904172003 | 88 | 290 | 6.0 | 9.0 | 0.00 | 0.00 | 0.00 | 68 | 1018.3 |
| 20260904171003 | 88 | 318 | 5.0 | 8.0 | 0.00 | 0.00 | 0.00 | 70 | 1018.3 |
| 20260904170003 | 87 | 321 | 2.0 | 3.0 | 0.00 | 0.00 | 0.00 | 67 | 1018.4 |
| 20260904165004 | 87 | 321 | 2.0 | 3.0 | 0.00 | 0.00 | 0.00 | 65 | 1018.4 |
| 20260904164004 | 87 | 321 | 3.0 | 6.0 | 0.00 | 0.00 | 0.00 | 70 | 1018.5 |
| 20260904163003 | 86 | 321 | 2.0 | 6.0 | 0.00 | 0.00 | 0.00 | 70 | 1018.6 |
| 20260904162004 | 86 | 321 | 2.0 | 5.0 | 0.00 | 0.00 | 0.00 | 70 | 1018.6 |
| 20260904161003 | 86 | 321 | 3.0 | 6.0 | 0.00 | 0.00 | 0.00 | 71 | 1018.7 |
| 20260904160003 | 86 | 321 | 2.0 | 3.0 | 0.00 | 0.00 | 0.00 | 74 | 1018.9 |
| 20260904155003 | 85 | 321 | 1.0 | 3.0 | 0.00 | 0.00 | 0.00 | 73 | 1018.9 |
| 20260904154003 | 85 | 321 | 1.0 | 5.0 | 0.00 | 0.00 | 0.00 | 75 | 1019.1 |
| 20260904153004 | 84 | 320 | 0.0 | 0.0 | 0.00 | 0.00 | 0.00 | 75 | 1019.1 |
| 20260904152003 | 83 | 320 | 0.0 | 0.0 | 0.00 | 0.00 | 0.00 | 78 | 1019.1 |
| 20260904151004 | 83 | 320 | 0.0 | 0.0 | 0.00 | 0.00 | 0.00 | 78 | 1019.0 |
| 20260904150004 | 82 | 320 | 1.0 | 3.0 | 0.00 | 0.00 | 0.00 | 79 | 1019.0 |
| 20260904145003 | 81 | 320 | 2.0 | 3.0 | 0.00 | 0.00 | 0.00 | 78 | 1018.9 |
| 20260904144004 | 80 | 320 | 2.0 | 3.0 | 0.00 | 0.00 | 0.00 | 80 | 1019.0 |
| 20260904143003 | 80 | 320 | 2.0 | 3.0 | 0.00 | 0.00 | 0.00 | 82 | 1019.0 |
| 20260904142004 | 78 | 320 | 0.0 | 0.0 | 0.00 | 0.00 | 0.00 | 84 | 1018.9 |
| 20260904141003 | 78 | 320 | 0.0 | 0.0 | 0.00 | 0.00 | 0.00 | 85 | 1018.8 |
| 20260904140004 | 77 | 320 | 0.0 | 0.0 | 0.00 | 0.00 | 0.00 | 88 | 1019.0 |
| 20260904135003 | 75 | 320 | 0.0 | 0.0 | 0.00 | 0.00 | 0.00 | 90 | 1019.0 |
| 20260904134003 | 74 | 320 | 0.0 | 0.0 | 0.00 | 0.00 | 0.00 | 91 | 1018.9 |
| 20260904112003 | 70 | 320 | 0.0 | 0.0 | 0.00 | 0.00 | 0.00 | 91 | 1018.5 |
| 20260904111004 | 69 | 320 | 0.0 | 0.0 | 0.00 | 0.00 | 0.00 | 91 | 1018.5 |
| 20260904110003 | 69 | 320 | 0.0 | 0.0 | 0.00 | 0.00 | 0.00 | 91 | 1018.3 |
| 20260904105004 | 69 | 320 | 0.0 | 0.0 | 0.00 | 0.00 | 0.00 | 91 | 1018.3 |
| 20260904104003 | 69 | 320 | 0.0 | 0.0 | 0.00 | 0.00 | 0.00 | 91 | 1018.3 |
| 20260904103003 | 69 | 320 | 0.0 | 0.0 | 0.00 | 0.00 | 0.00 | 91 | 1018.3 |
| 20260904102003 | 70 | 320 | 0.0 | 0.0 | 0.00 | 0.00 | 0.00 | 91 | 1018.2 |
| 20260904101003 | 70 | 320 | 0.0 | 0.0 | 0.00 | 0.00 | 0.00 | 91 | 1018.2 |
| 20260904100003 | 70 | 320 | 0.0 | 0.0 | 0.00 | 0.00 | 0.00 | 91 | 1018.0 |
| 20260904095003 | 70 | 320 | 0.0 | 0.0 | 0.00 | 0.00 | 0.00 | 91 | 1018.0 |
| 20260904094003 | 70 | 320 | 0.0 | 0.0 | 0.00 | 0.00 | 0.00 | 91 | 1017.9 |
| 20260904093004 | 70 | 320 | 0.0 | 0.0 | 0.00 | 0.00 | 0.00 | 91 | 1017.8 |
| 20260904081003 | 71 | 320 | 0.0 | 0.0 | 0.00 | 0.00 | 0.00 | 91 | 1017.7 |
| 20260904080003 | 71 | 320 | 0.0 | 0.0 | 0.00 | 0.00 | 0.00 | 91 | 1017.6 |
| 20260904075004 | 71 | 320 | 0.0 | 1.0 | 0.00 | 0.00 | 0.00 | 91 | 1017.7 |
| 20260904074004 | 72 | 320 | 0.0 | 0.0 | 0.00 | 0.00 | 0.00 | 90 | 1017.8 |
| 20260904073003 | 72 | 320 | 0.0 | 0.0 | 0.00 | 0.00 | 0.00 | 90 | 1017.8 |
| 20260904072004 | 73 | 320 | 0.0 | 0.0 | 0.00 | 0.00 | 0.00 | 90 | 1017.6 |
| 20260904061004 | 73 | 320 | 0.0 | 0.0 | 0.00 | 0.00 | 0.00 | 90 | 1018.0 |
| 20260904060004 | 73 | 320 | 0.0 | 0.0 | 0.00 | 0.00 | 0.00 | 90 | 1018.0 |
| 20260904055004 | 73 | 320 | 0.0 | 0.0 | 0.00 | 0.00 | 0.00 | 90 | 1018.1 |
| 20260904054003 | 74 | 320 | 0.0 | 0.0 | 0.00 | 0.00 | 0.00 | 89 | 1018.2 |
| 20260904053004 | 74 | 320 | 0.0 | 0.0 | 0.00 | 0.00 | 0.00 | 89 | 1018.3 |
| 20260904052004 | 74 | 320 | 0.0 | 0.0 | 0.00 | 0.00 | 0.00 | 89 | 1018.4 |
| 20260904051004 | 74 | 320 | 0.0 | 0.0 | 0.00 | 0.00 | 0.00 | 89 | 1018.5 |
| 20260904041004 | 74 | 320 | 0.0 | 0.0 | 0.00 | 0.00 | 0.00 | 89 | 1018.4 |
| 20260904040003 | 74 | 320 | 0.0 | 0.0 | 0.00 | 0.00 | 0.00 | 89 | 1018.4 |
| 20260904035003 | 74 | 320 | 0.0 | 0.0 | 0.00 | 0.00 | 0.00 | 89 | 1018.5 |
| 20260904034003 | 74 | 320 | 0.0 | 0.0 | 0.00 | 0.00 | 0.00 | 89 | 1018.6 |
| 20260904033003 | 74 | 320 | 0.0 | 1.0 | 0.00 | 0.00 | 0.00 | 90 | 1018.6 |
| 20260904032003 | 74 | 320 | 0.0 | 2.0 | 0.00 | 0.00 | 0.00 | 90 | 1018.7 |
| 20260904021003 | 76 | 320 | 0.0 | 0.0 | 0.00 | 0.00 | 0.00 | 89 | 1018.4 |
| 20260904020003 | 76 | 320 | 0.0 | 1.0 | 0.00 | 0.00 | 0.00 | 89 | 1018.3 |
| 20260904015003 | 76 | 320 | 0.0 | 1.0 | 0.00 | 0.00 | 0.00 | 88 | 1018.3 |
| 20260904014004 | 77 | 320 | 0.0 | 6.0 | 0.00 | 0.00 | 0.00 | 88 | 1018.1 |
| 20260904013003 | 77 | 320 | 0.0 | 0.0 | 0.00 | 0.00 | 0.00 | 87 | 1017.9 |
| 20260904012003 | 78 | 320 | 0.0 | 0.0 | 0.00 | 0.00 | 0.00 | 87 | 1017.9 |
| 20260904011003 | 78 | 320 | 0.0 | 0.0 | 0.00 | 0.00 | 0.00 | 86 | 1017.7 |
| 20260903231003 | 91 | 320 | 0.0 | 0.0 | 0.00 | 0.00 | 0.00 | 67 | 1016.3 |
| 20260903230002 | 91 | 320 | 0.0 | 0.0 | 0.00 | 0.00 | 0.00 | 62 | 1016.4 |
| 20260903225002 | 92 | 320 | 0.0 | 0.0 | 0.00 | 0.00 | 0.00 | 61 | 1016.4 |
| 20260903224002 | 92 | 320 | 0.0 | 0.0 | 0.00 | 0.00 | 0.00 | 60 | 1016.4 |
| 20260903223002 | 92 | 324 | 0.0 | 0.0 | 0.00 | 0.00 | 0.00 | 60 | 1016.7 |
| 20260903222003 | 92 | 324 | 0.0 | 2.0 | 0.00 | 0.00 | 0.00 | 61 | 1016.6 |
| 20260903211002 | 92 | 324 | 0.0 | 3.0 | 0.00 | 0.00 | 0.00 | 58 | 1016.8 |
| 20260903210002 | 92 | 324 | 1.0 | 3.0 | 0.00 | 0.00 | 0.00 | 59 | 1016.9 |
| 20260903205002 | 92 | 324 | 2.0 | 5.0 | 0.00 | 0.00 | 0.00 | 57 | 1017.1 |
| 20260903204002 | 91 | 324 | 3.0 | 3.0 | 0.00 | 0.00 | 0.00 | 60 | 1017.1 |
| 20260903203002 | 91 | 324 | 0.0 | 2.0 | 0.00 | 0.00 | 0.00 | 60 | 1017.2 |
| 20260903202003 | 90 | 324 | 1.0 | 3.0 | 0.00 | 0.00 | 0.00 | 60 | 1017.3 |